Torna al catalogo

STARLINK-2097

AttivoComunicazioniVLEO
NORAD 47377·PAYLOAD·🇺🇸 United States

Lanciato Jan 20, 2021 da Cape Canaveral Space Force Station

Loading…

Prossimi Passaggi (prossime 24 ore)

TLE

AggiornatoSource: CelesTrak SupGP

Epoca: Sep 14, 2026, 21:49 UTC

1 47377C 21005AE  26257.90951389  .00054569  00000+0  17551-2 0  2578
2 47377  53.1579 265.6963 0001150 102.6606 264.9523 15.31668392    11

Traccia STARLINK-2097 in tempo reale con AllMySat

Download on the App Store